Location: Ago
(8.4667°N, 4.4833°E)
Time: 23:19:31
(UTC+00:00)

Cosmos 1680 Rocket - Pass Details

Date: 18 September 2020
Orbit: 760 x 781 km, 74.1° (Epoch: 20 October)

Event Time Altitude Azimuth Distance (km) Brightness Sun altitude
Rises 19:03:15 0° 348° (NNW) 3,221 7.0 -21.3°
Reaches altitude 10° 19:05:36 10° 348° (NNW) 2,299 6.2 -21.9°
Maximum altitude 19:10:50 87° 78° (ENE) 774 3.4 -23.2°
Enters shadow 19:13:47 27° 166° (SSE) 1,447 4.7 -23.9°
